Weather History for Deer Park, WA

Change the Weather History Date:

Saturday, January 5, 2013

  Actual Average Record
Temperature  
Mean Temperature 29 °F 26 °F  
Max Temperature 33 °F 32 °F 47 °F (2012)
Min Temperature 25 °F 20 °F -27 °F (2004)
Degree Days  
Heating Degree Days 36 39  
Month to date heating degree days 234 198  
Since 1 July heating degree days 3027 3425  
Cooling Degree Days 0 0  
Month to date cooling degree days 0 0  
Year to date cooling degree days 0 0  
Moisture  
Dew Point 24 °F    
Average Humidity 85    
Maximum Humidity 100    
Minimum Humidity 69    
Precipitation  
Precipitation 0.01 in 0.10 in 0.33 in (2007)
Month to date precipitation 0.01 0.53  
Year to date precipitation 0.01 0.53  
Sea Level Pressure  
Sea Level Pressure 30.30 in    
Wind  
Wind Speed 7 mph (NE)    
Max Wind Speed 16 mph    
Max Gust Speed 20 mph    
Visibility 8 miles    
Events Snow    
T = Trace of Precipitation, MM = Missing Value Source: NWS Daily Summary

Daily Weather History Graph

Daily Weather History Graph

Search for Another Location

Airport:

Trip Planner

Search our weather history database for the weather conditions in past years. The results will help you decide how hot, cold, wet, or windy it might be!

Date:

Astronomy

Jan. 05, 2013 Rise Set
Actual Time 7:38 AM PST 4:12 PM PST
Civil Twilight 7:03 AM PST 4:47 PM PST
Nautical Twilight 6:23 AM PST 5:27 PM PST
Astronomical Twilight 5:46 AM PST 6:04 PM PST
Moon 12:34 AM PST (1/5) 11:17 AM PST (1/5)
Length of Visible Light 9h 44m
Length of Day
8h 33m
Last Quarter, 43% of the Moon is Illuminated
Jan 5
Last Quarter
Jan 11
New
Jan 18
First Quarter
Jan 26
Full
Feb 3
Last Quarter

Hourly Weather History & Observations

Time (PST) Temp. Windchill Dew Point Humidity Pressure Visibility Wind Dir Wind Speed Gust Speed Precip Events Conditions
12:53 AM 27.0 °F 18.7 °F 23.0 °F 85% 30.43 in 10.0 mi NNE 8.1 mph - N/A   Overcast
1:53 AM 28.0 °F 21.7 °F 24.1 °F 85% 30.43 in 10.0 mi NNE 5.8 mph - N/A   Overcast
2:53 AM 28.0 °F 20.8 °F 24.1 °F 85% 30.43 in 6.0 mi NE 6.9 mph - 0.00 in Snow Light Snow
3:53 AM 28.0 °F 22.8 °F 24.1 °F 85% 30.43 in 10.0 mi NNE 4.6 mph - 0.00 in   Overcast
4:53 AM 28.0 °F 19.3 °F 24.1 °F 85% 30.41 in 10.0 mi NNE 9.2 mph - 0.00 in   Overcast
5:53 AM 28.0 °F 18.6 °F 24.1 °F 85% 30.41 in 6.0 mi NNE 10.4 mph - 0.00 in Snow Light Snow
6:53 AM 27.0 °F 18.7 °F 23.0 °F 85% 30.40 in 10.0 mi NNE 8.1 mph - 0.00 in   Mostly Cloudy
7:53 AM 28.9 °F 18.6 °F 24.1 °F 82% 30.39 in 10.0 mi NNE 12.7 mph - N/A   Overcast
8:53 AM 30.0 °F 20.0 °F 24.1 °F 79% 30.38 in 10.0 mi NNE 12.7 mph - N/A   Overcast
9:53 AM 30.9 °F 20.7 °F 24.1 °F 76% 30.37 in 10.0 mi NNE 13.8 mph - N/A   Clear
10:53 AM 32.0 °F 23.0 °F 25.0 °F 75% 30.34 in 10.0 mi NNE 11.5 mph - N/A   Clear
11:53 AM 32.0 °F 22.5 °F 25.0 °F 75% 30.32 in 10.0 mi NE 12.7 mph - N/A   Scattered Clouds
12:53 PM 33.1 °F 24.9 °F 25.0 °F 72% 30.32 in 10.0 mi North 10.4 mph - N/A   Clear
1:53 PM 33.1 °F 26.9 °F 26.1 °F 75% 30.30 in 10.0 mi NNE 6.9 mph - N/A   Scattered Clouds
2:53 PM 32.0 °F 24.2 °F 26.1 °F 79% 30.30 in 10.0 mi NNE 9.2 mph - N/A   Mostly Cloudy
3:53 PM 30.9 °F 24.3 °F 25.0 °F 79% 30.29 in 10.0 mi NE 6.9 mph - N/A   Scattered Clouds
4:27 PM 30.2 °F 26.7 °F 24.8 °F 80% 30.22 in 10.0 mi North 3.5 mph - N/A   Mostly Cloudy
4:53 PM 30.0 °F 26.5 °F 25.0 °F 82% 30.29 in 10.0 mi NE 3.5 mph - N/A   Overcast
5:26 PM 28.4 °F 23.3 °F 24.8 °F 86% 30.20 in 10.0 mi NE 4.6 mph - N/A   Scattered Clouds
5:53 PM 28.9 °F 25.2 °F 25.0 °F 85% 30.27 in 10.0 mi NE 3.5 mph - N/A   Partly Cloudy
6:53 PM 27.0 °F - 24.1 °F 89% 30.27 in 10.0 mi Calm Calm - N/A   Mostly Cloudy
7:26 PM 26.6 °F - 24.8 °F 93% 30.18 in 10.0 mi Calm Calm - N/A   Overcast
7:53 PM 28.0 °F - 25.0 °F 88% 30.25 in 10.0 mi Calm Calm - N/A   Overcast
8:34 PM 28.4 °F - 26.6 °F 93% 30.19 in 7.0 mi Calm Calm - N/A   Overcast
8:53 PM 27.0 °F 23.0 °F 26.1 °F 96% 30.26 in 10.0 mi South 3.5 mph - N/A   Overcast
9:53 PM 26.1 °F 20.5 °F 23.0 °F 88% 30.26 in 2.0 mi SSE 4.6 mph - 0.00 in Snow Light Snow
9:59 PM 26.6 °F 20.0 °F 23.0 °F 86% 30.18 in 1.8 mi SSE 5.8 mph - 0.00 in Snow Light Snow
10:22 PM 24.8 °F 17.9 °F 24.8 °F 100% 30.18 in 1.5 mi SSE 5.8 mph - 0.00 in Snow Light Snow
10:53 PM 25.0 °F 19.3 °F 24.1 °F 96% 30.25 in 1.5 mi South 4.6 mph - 0.00 in Snow Light Snow
11:24 PM 24.8 °F 17.9 °F 23.0 °F 93% 30.16 in 1.2 mi South 5.8 mph - 0.01 in Snow Light Snow
11:46 PM 24.8 °F 20.5 °F 24.8 °F 100% 30.16 in 1.5 mi SW 3.5 mph - 0.01 in Snow Light Snow
11:53 PM 25.0 °F 20.7 °F 24.1 °F 96% 30.23 in 1.5 mi SW 3.5 mph - 0.01 in Snow Light Snow